Погода в Казыме

Погода в Казыме : погода сейчас, прогноз погоды и архив. Всё, что Вы хотите узнать о погоде в Казыме!

Хотите узнать прогноз погоды в Казыме? Тогда Вам сюда: Погода в Казыме

Поиск расширенной информации на нашем сайте:

Полезная информация: Отопления частного дома - Экономная установка котлов отопления любых видов под ключ

Другие новости

Новости СМИ2

Главная страница сайта

Новости сайта

03.07.2017

Напоминаем, что на нашем специализированном сайте Метеоцентр.Азия вы можете получить высокодетализированные автоматические прогнозы погоды по пунктам России, СНГ и мира в авиационном формате (включающие направление и скорость ветра, видимость, явления погоды, количество и форму облачности, нижнюю и верхнюю границу облачности).

Рекомендуем: Александрия витязево официальный сайт: популярные сайты aleksandriya.net.

Погода в Казыме - сегодня

Время (UTC), дата Ветер
(°,м/с) 
Видим.   Явления Облачность Т
(°С)
Тd
(°С)
f(%) Тe
(°С)
Pmin
(гПа)
dP
(гПа)
Po
(мм)
O2
(г/м3)
Тmin Tmax R s Состояние
почвы
03 20.10.17 100 (В) 10 км  слаб. ливневой дождь  10/10 300 м кучево-дожд. 
[Cb cap]
+1 +0.6 97 993.1  -1  737  296  +0.8       
06 20.10.17 110 (В) 4000 м  слаб. ливневой дождь  10/10 300 м кучево-дожд. 
[Cb cap]
+2.9 +2.4 97 +2  992.2  -0.8  736  293           
09 20.10.17 130 (ЮВ) 10 км  в посл. час ливневой дождь  10/10 300 м кучево-дожд. 
[Cb cap]
+4 +3 93 +4  991.9  -0.3  736  292           
12 20.10.17 120 (ЮВ) 10 км  слаб. ливневой дождь  10/10 300 м кучево-дожд. 
[Cb cap]
+3.4 +2.6 94 +3  992.1  0.1  736  293           
15 20.10.17 110 (В) 10 км  в посл. час ливневой дождь  10/10 300 м кучево-дожд. 
[Cb cap]
+3.2 +2.5 95 +4  992  -0.1  736  293    +4.3     
18 20.10.17 110 (В) 4000 м  слаб. морось{ливн. осадки}  10/10 300 м 
[St]
+3.4 +2.7 95 +3  991.5  -0.5  736  292           
21 20.10.17 090 (В) 10 км  {морось}  10/10 300 м 
[St]
+2.5 +1.8 95 +2  990.9  -0.6  735  293           
00 21.10.17 080 (В) 4000 м  слаб. дождь{морось}  10/10 300 м 
[Frnb|Ns]
+1.6 +1 96 +1  990.6  -0.3  735  294           
03 21.10.17 060 (СВ) 10 км  слаб. дождь  10/10 300 м 
[Sc]
+1.2 +0.6 96 +2  990.3  -0.3  735  295  +1.2    0.7     
06 21.10.17 040 (СВ) 10 км  слаб. дождь  10/10 300 м 
[Sc]
+1.1 +0.4 95 +2  990.5  0.2  735  295  +0.9         
09 21.10.17 360 (С) н/о  слаб. дождь{снег}  10/10 1000 м 
[Sc]
+1.6 +0.6 93 +2  991.3  0.8  736  295           
12 21.10.17 тихо ()   10 км  {снег, дождь}  10/10 300 м 
[Sc]
+1.2 +0.5 95 +1  992.2  0.9  736  295           
15 21.10.17 310 (СЗ) 10 км  слаб. снег  10/10 300 м 
[Sc]
+0.2 -0.3 96 +1  992.9  0.6  737  297    +1.9     
18 21.10.17 300 (СЗ) 10 км  слаб. снег  10/10 600 м 
[Sc]
-0 -0.4 97 +1  993.6  0.6  737  297           
21 21.10.17 290 (З) 10 км  слаб. снег  10/10 600 м 
[Sc]
-0.1 -0.5 97 -1  994.5  738  297           
00 22.10.17 290 (З) 4000 м  слаб. снег  10/10 600 м 
[Sc]
-0.2 -0.5 98 995.2  0.7  738  298           
03 22.10.17 280 (З) 10 км  {снег}  10/10 300 м 
[Sc]
-1 -1.3 98 -2  996.4  1.1  739  299  -1    равномерный
мокрый или
старый снег
100% 
06 22.10.17 270 (З) 10 км  {снег}  10/10 300 м 
[Sc]
-0.6 -1.2 96 -1  997.6  1.2  740  299           
09 22.10.17 250 (З) 10 км    10/10 300 м кучево-дожд. 
[Cb cap]
-0.6 -1.4 94 -2  999.1  1.5  741  299           
12 22.10.17 250 (З) 4000 м  слаб. ливневой снег  10/10 300 м кучево-дожд. 
[Cb cap]
-0.9 -1.5 96 -2  1000.6  1.5  742  300           
15 22.10.17 260 (З) 10 км  {ливн. осадки}  10/10 300 м кучево-дожд. 
[Cb cap]
-1 -1.6 96 -3  1001.8  1.2  743  301    -0.3  0.4     
18 22.10.17 260 (З) 10 км  {ливн. осадки}  10/10 300 м кучево-дожд. 
[Cb cap]
-1.2 -1.7 96 -3  1002.9  744  301           
21 22.10.17 250 (З) 10 км  слаб. ливневой снег  10/10 300 м кучево-дожд. 
[Cb cap]
-1.6 -2.1 96 -3  1003.7  0.8  745  302           
00 23.10.17 230 (ЮЗ) 10 км  слаб. ливневой снег  10/10 300 м кучево-дожд. 
[Cb cap]
-1.6 -2.1 96 -3  1004.6  0.9  745  302           
03 23.10.17 240 (ЮЗ) 10 км  слаб. ливневой снег  10/10 300 м кучево-дожд. 
[Cb cap]
-1.7 -2.2 96 -3  1005.7  1.1  746  303  -1.8    равномерный
сухой снег
100% 
Время (UTC), дата Ветер
(°,м/с) 
Видим.   Явления Облачность Т
(°С)
Тd
(°С)
f(%) Тe
(°С)
Pmin
(гПа)
dP
(гПа)
Po
(мм)
O2
(г/м3)
Тmin Tmax R s Состояние
почвы

Для получения пояснительной информации подведите курсор к названию столбца.

ПОГОДА в Казыме - архив

Всё, что Вы хотите узнать о погоде в Казыме - удобно и подробно!

Выберите нужную дату (начиная с 1 января 2015* года) и нажмите кнопку "Найти".
Будут отображены архивные сводки погоды по пункту Казым, начиная с указанной даты.


Отображать данные в формате CSV (для использования в таблицах Excel)


Внимание! Наш архив погоды предназначен исключительно для личного некоммерческого использования в познавательных целях. Если Вам необходимы официальные справки о состоянии погоды (для производственных, юридических, коммерческих и т.п. целей), обращайтесь в органы Росгидромета.

*Примечание: данная дата относится к архиву по метеостанциям СССР (Россия, СНГ, Балтия).
Архив по метеостанциям Зарубежной Европы и Азии (кроме Китая) хранится 10 дней, по другим регионам земного шара (Китай, Африка, Америка, Австралия, Океания) - 1 день.

Казым - район местоположения метеостанции


Название, широта, долгота, высота метеостанции:
Казым 63.7°ш. 67.2°д. 27 м над ур. моря [Российская Федерация]

Дополнительная информация

В oтличие oт бoльшинства пoгoдных сайтoв мы публикуем пoдрoбную метеoинфoрмацию в детальнoм прoфессиoнальнoм фoрмате.

Характеристики температуры и влажнoсти вoздуха измеряются на высoте 2 м в тени вдали oт зданий и деревьев.
Скoрoсть ветра измеряется на высoте 10 м (на урoвне рoста челoвека скoрoсть ветра ниже в 1.5-2 раза). Если метеoстанция нахoдится в гoрoде или в лесу, тo скoрoсть ветра занижена на 2-4 м/с пo сравнению с oткрытым местoм. Скoрoсть ветра над акватoриями крупных рек и oзёр, а также на вершинах хoлмoв на 2-5 м/с выше, чем в oбычных услoвиях.
Атмoсфернoе давление в разных тoчках местнoсти мoжет значительнo oтличаться oт давления на метеoстанции, в зависимoсти oт услoвий рельефа (при пoдъёме на 10 м давление пoнижается примернo на 1 мм рт.ст.).